Weather History for KADM - September, 2011

Change the Weather History Date:

Sunday, September 25, 2011

  Actual Average Record
Temperature  
Mean Temperature 72 °F -  
Max Temperature 86 °F 81 °F 95 °F (2005)
Min Temperature 59 °F 58 °F 44 °F (2000)
Cooling Degree Days 8    
Growing Degree Days 22 (Base 50)    
Moisture  
Dew Point 50 °F    
Average Humidity 57    
Maximum Humidity 77    
Minimum Humidity 29    
Precipitation  
Precipitation 0.00 in - - ()
Sea Level Pressure  
Sea Level Pressure 29.71 in    
Wind  
Wind Speed 2 mph (North)    
Max Wind Speed 14 mph    
Max Gust Speed 23 mph    
Visibility 10 miles    
Events      
Averages and records for this station are not official NWS values.
T = Trace of Precipitation, MM = Missing Value Source: NWS Daily Summary

Daily Weather History Graph

Daily Weather History Graph

Search for Another Location

Airport or City:

Trip Planner

Search our weather history database for the weather conditions in past years. The results will help you decide how hot, cold, wet, or windy it might be!

Date:

Astronomy

Sep. 25, 2011 Rise Set
Actual Time 7:18 AM CDT 7:20 PM CDT
Civil Twilight 6:53 AM CDT 7:45 PM CDT
Nautical Twilight 6:23 AM CDT 8:15 PM CDT
Astronomical Twilight 5:54 AM CDT 8:44 PM CDT
Moon 5:10 AM CDT (9/25) 6:00 PM CDT (9/25)
Length of Visible Light 12h 52m
Length of Day
12h 02m
Waning Crescent, 5% of the Moon is Illuminated
Sep 25
Waning Crescent
Sep 27
New
Oct 3
First Quarter
Oct 11
Full
Oct 19
Last Quarter

Hourly Weather History & Observations

Time (CDT) Temp. Dew Point Humidity Pressure Visibility Wind Dir Wind Speed Gust Speed Precip Events Conditions
12:15 AM 68.0 °F 51.8 °F 56% 29.69 in 10.0 mi Calm Calm - N/A   Clear
12:35 AM 68.0 °F 51.8 °F 56% 29.68 in 10.0 mi Calm Calm - N/A   Clear
12:55 AM 68.0 °F 51.8 °F 56% 29.67 in 10.0 mi Calm Calm - N/A   Clear
1:15 AM 69.8 °F 50.0 °F 49% 29.67 in 10.0 mi Calm Calm - N/A   Clear
1:35 AM 69.8 °F 50.0 °F 49% 29.66 in 10.0 mi Calm Calm - N/A   Clear
1:55 AM 69.8 °F 50.0 °F 49% 29.65 in 10.0 mi Calm Calm - N/A   Clear
2:15 AM 68.0 °F 50.0 °F 52% 29.65 in 10.0 mi Calm Calm - N/A   Clear
2:35 AM 68.0 °F 50.0 °F 52% 29.65 in 10.0 mi Calm Calm - N/A   Clear
2:55 AM 66.2 °F 50.0 °F 56% 29.64 in 10.0 mi Calm Calm - N/A   Clear
3:15 AM 64.4 °F 50.0 °F 59% 29.63 in 10.0 mi Calm Calm - N/A   Clear
3:35 AM 62.6 °F 51.8 °F 68% 29.63 in 10.0 mi SSE 3.5 mph - N/A   Clear
4:15 AM 60.8 °F 51.8 °F 72% 29.64 in 10.0 mi North 5.8 mph - N/A   Clear
4:35 AM 60.8 °F 51.8 °F 72% 29.63 in 10.0 mi Calm Calm - N/A   Clear
4:55 AM 60.8 °F 51.8 °F 72% 29.64 in 10.0 mi Calm Calm - N/A   Clear
5:15 AM 59.0 °F 51.8 °F 77% 29.64 in 10.0 mi Calm Calm - N/A   Clear
5:55 AM 59.0 °F 51.8 °F 77% 29.63 in 10.0 mi Calm Calm - N/A   Clear
6:15 AM 59.0 °F 51.8 °F 77% 29.63 in 10.0 mi Calm Calm - N/A   Clear
6:35 AM 59.0 °F 51.8 °F 77% 29.65 in 10.0 mi Calm Calm - N/A   Clear
7:55 AM 62.6 °F 53.6 °F 72% 29.69 in 10.0 mi NNW 11.5 mph - N/A   Clear
8:55 AM 64.4 °F 55.4 °F 73% 29.73 in 10.0 mi NNW 8.1 mph - N/A   Clear
9:55 AM 68.0 °F 55.4 °F 64% 29.75 in 10.0 mi North 11.5 mph - N/A   Clear
10:55 AM 71.6 °F 55.4 °F 57% 29.78 in 10.0 mi NNW 13.8 mph - N/A   Clear
12:55 PM 78.8 °F 53.6 °F 42% 29.78 in 10.0 mi NNW 8.1 mph - N/A   Clear
3:55 PM 86.0 °F 50.0 °F 29% 29.76 in 10.0 mi North 11.5 mph 23.0 mph N/A   Clear
10:15 PM 68.0 °F 41.0 °F 37% 29.82 in 10.0 mi North 6.9 mph - N/A   Clear
10:35 PM 66.2 °F 41.0 °F 40% 29.83 in 10.0 mi NNE 4.6 mph - N/A   Clear
10:55 PM 66.2 °F 42.8 °F 43% 29.83 in 10.0 mi NE 10.4 mph - N/A   Clear
11:15 PM 64.4 °F 42.8 °F 45% 29.83 in 10.0 mi NE 8.1 mph - N/A   Clear
11:35 PM 64.4 °F 42.8 °F 45% 29.84 in 10.0 mi NE 8.1 mph 16.1 mph N/A   Clear
11:55 PM 64.4 °F 42.8 °F 45% 29.84 in 10.0 mi NNE 6.9 mph - N/A   Clear